This is the latest recevied weather packets stored in our database for station/object K2CCS. If no packets are shown the sender has not sent any weather packets the latest 10 day(s).
| Time | Temp. | Humidity | Pressure | Rain* | Wind** | Luminosity | Snow |
|---|---|---|---|---|---|---|---|
| 1777822959 | 10° C | 42% | 1014.7 hPa | 0 mm | - | 320 W/m² | - |
| 1777822657 | 10° C | 42% | 1014.4 hPa | 0 mm | - | 286 W/m² | - |
| 1777822355 | 10° C | 42% | 1014.5 hPa | 0 mm | - | 258 W/m² | - |
| 1777822052 | 10° C | 42% | 1014.6 hPa | 0 mm | - | 232 W/m² | - |
| 1777821750 | 9.44° C | 43% | 1014.8 hPa | 0 mm | - | 224 W/m² | - |
| 1777821447 | 9.44° C | 43% | 1014.7 hPa | 0 mm | - | 206 W/m² | - |
| 1777821145 | 9.44° C | 43% | 1014.7 hPa | 0 mm | - | 184 W/m² | - |
| 1777820841 | 10° C | 44% | 1014.7 hPa | 0 mm | - | 177 W/m² | - |
| 1777820537 | 10° C | 44% | 1014.6 hPa | 0 mm | - | 220 W/m² | - |
| 1777820234 | 9.44° C | 43% | 1014.5 hPa | 0 mm | - | 216 W/m² | - |
| 1777819931 | 9.44° C | 44% | 1014.7 hPa | 0 mm | - | 166 W/m² | - |
| 1777819629 | 9.44° C | 43% | 1014.7 hPa | 0 mm | - | 144 W/m² | - |
| 1777819327 | 8.89° C | 45% | 1015 hPa | 0 mm | - | 145 W/m² | - |
| 1777819023 | 8.89° C | 48% | 1014.7 hPa | 0 mm | - | 135 W/m² | - |
| 1777818720 | 8.89° C | 50% | 1015 hPa | 0 mm | - | 110 W/m² | - |
| 1777818416 | 8.89° C | 51% | 1014.8 hPa | 0 mm | - | 94 W/m² | - |
| 1777818114 | 8.89° C | 53% | 1014.8 hPa | 0 mm | - | 99 W/m² | - |
| 1777817810 | 8.89° C | 52% | 1014.9 hPa | 0 mm | - | 116 W/m² | - |
| 1777817508 | 9.44° C | 51% | 1015 hPa | 0 mm | - | 151 W/m² | - |
| 1777817203 | 9.44° C | 53% | 1014.9 hPa | 0 mm | - | 264 W/m² | - |
| 1777816902 | 9.44° C | 54% | 1015 hPa | 0 mm | - | 306 W/m² | - |
| 1777816598 | 8.89° C | 55% | 1014.7 hPa | 0 mm | - | 340 W/m² | - |
| 1777816295 | 8.89° C | 56% | 1014.9 hPa | 0 mm | - | 310 W/m² | - |
| 1777815993 | 8.89° C | 56% | 1015 hPa | 0 mm | - | 227 W/m² | - |
| 1777815690 | 8.33° C | 57% | 1015 hPa | 0 mm | - | 221 W/m² | - |
* Rain latest hour (hover to see other rain measurements)
** Current wind speed in m/s (hover to see current wind gust speed)